Weather History for Sidney, NE

Change the Weather History Date:

Saturday, March 17, 2012

  Actual Average Record
Temperature  
Mean Temperature 57 °F 39 °F  
Max Temperature 81 °F 54 °F 81 °F (2012)
Min Temperature 33 °F 25 °F -1 °F (1965)
Degree Days  
Heating Degree Days 8 26  
Month to date heating degree days 354 469  
Since 1 July heating degree days 4863 5051  
Cooling Degree Days 0 0  
Month to date cooling degree days 0 0  
Year to date cooling degree days 0 0  
Growing Degree Days 8 (Base 50)    
Moisture  
Dew Point 19 °F    
Average Humidity 32    
Maximum Humidity 56    
Minimum Humidity 8    
Precipitation  
Precipitation 0.00 in 0.04 in 0.41 in (1986)
Month to date precipitation 0.00 0.49  
Year to date precipitation 0.41 1.01  
Sea Level Pressure  
Sea Level Pressure 29.59 in    
Wind  
Wind Speed 11 mph (SW)    
Max Wind Speed 25 mph    
Max Gust Speed 39 mph    
Visibility 10 miles    
Events      
T = Trace of Precipitation, MM = Missing Value Source: NWS Daily Summary

Daily Weather History Graph

Daily Weather History Graph

Search for Another Location

Airport:

Trip Planner

Search our weather history database for the weather conditions in past years. The results will help you decide how hot, cold, wet, or windy it might be!

Date:

Astronomy

Mar. 17, 2012 Rise Set
Actual Time 6:59 AM MDT 7:01 PM MDT
Civil Twilight 6:31 AM MDT 7:28 PM MDT
Nautical Twilight 5:59 AM MDT 8:01 PM MDT
Astronomical Twilight 5:27 AM MDT 8:33 PM MDT
Moon 4:04 AM MDT (3/17) 2:25 PM MDT (3/17)
Length of Visible Light 12h 56m
Length of Day
12h 02m
Waning Crescent, 22% of the Moon is Illuminated
Mar 17
Waning Crescent
Mar 22
New
Mar 30
First Quarter
Apr 6
Full
Apr 13
Last Quarter

Hourly Weather History & Observations

Time (MDT) Temp. Windchill Dew Point Humidity Pressure Visibility Wind Dir Wind Speed Gust Speed Precip Events Conditions
12:53 AM 42.1 °F 35.7 °F 19.9 °F 41% 29.65 in 10.0 mi WNW 11.5 mph - N/A   Clear
1:53 AM 37.9 °F 32.1 °F 19.9 °F 48% 29.67 in 10.0 mi WNW 8.1 mph - N/A   Clear
2:53 AM 37.9 °F 32.1 °F 19.9 °F 48% 29.66 in 10.0 mi NW 8.1 mph - N/A   Clear
3:53 AM 37.0 °F 30.4 °F 19.9 °F 50% 29.64 in 10.0 mi WNW 9.2 mph - N/A   Clear
4:53 AM 36.0 °F 29.0 °F 19.9 °F 52% 29.66 in 10.0 mi WNW 9.2 mph - N/A   Clear
5:53 AM 36.0 °F 28.0 °F 21.0 °F 55% 29.66 in 10.0 mi WNW 11.5 mph - N/A   Clear
6:53 AM 35.1 °F 26.9 °F 19.9 °F 54% 29.70 in 10.0 mi WNW 11.5 mph - N/A   Clear
7:53 AM 39.9 °F 33.4 °F 21.9 °F 49% 29.74 in 10.0 mi NW 10.4 mph - N/A   Clear
8:53 AM 51.1 °F - 25.0 °F 36% 29.70 in 10.0 mi WNW 8.1 mph - N/A   Clear
9:53 AM 62.1 °F - 25.0 °F 24% 29.68 in 10.0 mi West 3.5 mph - N/A   Clear
10:53 AM 72.0 °F - 23.0 °F 16% 29.64 in 10.0 mi East 6.9 mph - N/A   Clear
11:53 AM 75.9 °F - 23.0 °F 14% 29.60 in 10.0 mi ESE 15.0 mph - N/A   Clear
12:53 PM 77.0 °F - 21.9 °F 13% 29.58 in 10.0 mi ESE 13.8 mph - N/A   Clear
1:53 PM 78.1 °F - 23.0 °F 13% 29.56 in 10.0 mi SSE 13.8 mph 23.0 mph N/A   Clear
2:49 PM 80.6 °F - 21.2 °F 11% 29.62 in 10.0 mi SSE 16.1 mph 21.9 mph N/A   Clear
2:53 PM 79.0 °F - 21.0 °F 12% 29.51 in 10.0 mi SSE 10.4 mph 21.9 mph N/A   Clear
3:53 PM 80.1 °F - 17.1 °F 9% 29.49 in 10.0 mi South 17.3 mph 39.1 mph N/A   Clear
4:53 PM 78.1 °F - 14.0 °F 9% 29.48 in 10.0 mi South 20.7 mph 27.6 mph N/A   Clear
5:53 PM 75.0 °F - 15.1 °F 10% 29.48 in 10.0 mi South 15.0 mph - N/A   Clear
6:53 PM 68.0 °F - 12.9 °F 12% 29.50 in 10.0 mi South 12.7 mph - N/A   Clear
7:53 PM 55.0 °F - 10.9 °F 17% 29.54 in 10.0 mi South 10.4 mph - N/A   Clear
8:53 PM 48.9 °F - 10.9 °F 22% 29.52 in 10.0 mi SSW 10.4 mph - N/A   Clear
9:53 PM 51.1 °F - 10.9 °F 20% 29.48 in 10.0 mi SSW 15.0 mph - N/A   Clear
10:53 PM 43.0 °F 37.7 °F 12.9 °F 30% 29.47 in 10.0 mi SSE 9.2 mph - N/A   Clear
11:53 PM 37.9 °F 32.1 °F 12.9 °F 36% 29.47 in 10.0 mi SW 8.1 mph - N/A   Clear